Вернуться в каталог

RADIO 3

АктивенЛюбительское радиоPO
NORAD 12997·PAYLOAD·🇷🇺 Russia

Запущен Dec 17, 1981 с Plesetsk Cosmodrome

Loading…

Ближайшие Пролёты (ближайшие 24 часа)

TLE

СвежийSource: Space-Track

Эпоха: Sep 14, 2026, 08:06 UTC

1 12997U 81120A   26257.33784646 -.00000005  00000-0 -15417-3 0  9991
2 12997  82.9597 214.7844 0059820  78.6323  75.1957 12.15873590985538

Отслеживайте RADIO 3 в реальном времени с AllMySat

Download on the App Store